When you browse on this site, cookies collect data to enhance your experience and personalize the content and advertising you see.
Visit our Privacy Policy to learn more. By continuing to use the site, you agree to this use of cookies and data.
  • In Romania
  • List of Countries
  • For 7 days
  • Water Temperature
  • Satellite Maps
  • Weather Map
  • Weather Widgets
  • user-avatar
    Login

    Hourly Weather Dudachnyy

    Today, 21 May, Tuesday

    Time Temperature Precipitation Wind Pressure Humidity
    00:00 +4°C° 0 mm 3 mps 757 mmHg 74%
    01:00 +4°C° 0 mm 3 mps 757 mmHg 75%
    02:00 +4°C° 0 mm 3 mps 757 mmHg 77%
    03:00 +4°C° 0 mm 3 mps 757 mmHg 83%
    04:00 +5°C° 0 mm 3 mps 757 mmHg 79%
    05:00 +7°C° 0 mm 3 mps 758 mmHg 76%
    06:00 +7°C° 0 mm 4 mps 758 mmHg 73%
    07:00 +10°C° 0.1 mm 4 mps 758 mmHg 65%
    08:00 +10°C° 0.1 mm 5 mps 758 mmHg 57%
    09:00 +12°C° 0 mm 5 mps 758 mmHg 49%
    10:00 +13°C° 0 mm 5 mps 758 mmHg 48%
    11:00 +13°C° 0 mm 5 mps 758 mmHg 46%
    12:00 +14°C° 0 mm 5 mps 758 mmHg 44%
    13:00 +14°C° 0 mm 5 mps 758 mmHg 44%
    14:00 +14°C° 0 mm 5 mps 758 mmHg 44%
    15:00 +15°C° 0 mm 4 mps 758 mmHg 45%
    16:00 +14°C° 0 mm 3 mps 758 mmHg 48%
    17:00 +14°C° 0 mm 3 mps 758 mmHg 51%
    18:00 +15°C° 0 mm 2 mps 758 mmHg 54%
    19:00 +14°C° 0 mm 2 mps 758 mmHg 57%
    20:00 +12°C° 0 mm 2 mps 758 mmHg 59%
    21:00 +10°C° 0 mm 2 mps 758 mmHg 62%
    22:00 +10°C° 0 mm 2 mps 758 mmHg 62%
    23:00 +9°C° 0 mm 3 mps 758 mmHg 63%

    Tomorrow, 22 May, Wednesday

    Time Temperature Precipitation Wind Pressure Humidity
    00:00 +9°C° 0 mm 3 mps 758 mmHg 63%
    01:00 +8°C° 0 mm 3 mps 758 mmHg 65%
    02:00 +8°C° 0 mm 3 mps 758 mmHg 66%
    03:00 +8°C° 0 mm 3 mps 758 mmHg 68%
    04:00 +9°C° 0 mm 3 mps 757 mmHg 67%
    05:00 +10°C° 0 mm 3 mps 757 mmHg 66%
    06:00 +12°C° 0 mm 3 mps 757 mmHg 66%
    07:00 +12°C° 0 mm 3 mps 757 mmHg 66%
    08:00 +14°C° 0 mm 2 mps 757 mmHg 67%
    09:00 +14°C° 0 mm 1 mps 756 mmHg 67%
    10:00 +15°C° 0.4 mm 2 mps 756 mmHg 68%
    11:00 +15°C° 0.4 mm 2 mps 756 mmHg 69%
    12:00 +16°C° 0.4 mm 2 mps 755 mmHg 70%
    13:00 +17°C° 0.3 mm 3 mps 755 mmHg 67%
    14:00 +19°C° 0.3 mm 3 mps 755 mmHg 64%
    15:00 +20°C° 0.3 mm 3 mps 754 mmHg 62%
    16:00 +20°C° 0.4 mm 3 mps 754 mmHg 64%
    17:00 +20°C° 0.4 mm 3 mps 754 mmHg 65%
    18:00 +20°C° 0.4 mm 2 mps 753 mmHg 67%
    19:00 +18°C° 0 mm 3 mps 753 mmHg 69%
    20:00 +17°C° 0 mm 3 mps 753 mmHg 71%
    21:00 +15°C° 0 mm 4 mps 753 mmHg 73%
    22:00 +15°C° 0 mm 5 mps 753 mmHg 75%
    23:00 +14°C° 0 mm 5 mps 752 mmHg 76%

    Day after tomorrow, 23 May, Thursday

    Time Temperature Precipitation Wind Pressure Humidity
    00:00 +14°C° 0 mm 6 mps 752 mmHg 77%
    01:00 +14°C° 0 mm 5 mps 752 mmHg 77%
    02:00 +13°C° 0 mm 5 mps 752 mmHg 76%
    03:00 +13°C° 0 mm 5 mps 752 mmHg 76%
    04:00 +13°C° 0 mm 5 mps 752 mmHg 73%
    05:00 +14°C° 0 mm 5 mps 752 mmHg 69%
    06:00 +15°C° 0 mm 5 mps 751 mmHg 66%
    07:00 +16°C° 0 mm 5 mps 751 mmHg 59%
    08:00 +19°C° 0 mm 6 mps 751 mmHg 52%
    09:00 +21°C° 0 mm 7 mps 751 mmHg 45%
    10:00 +21°C° 0 mm 7 mps 751 mmHg 43%
    11:00 +22°C° 0 mm 7 mps 750 mmHg 41%
    12:00 +23°C° 0 mm 8 mps 750 mmHg 39%
    13:00 +23°C° 0 mm 8 mps 750 mmHg 39%
    14:00 +23°C° 0 mm 8 mps 749 mmHg 39%
    15:00 +23°C° 0 mm 8 mps 749 mmHg 39%
    16:00 +22°C° 0 mm 6 mps 749 mmHg 44%
    17:00 +21°C° 0 mm 5 mps 748 mmHg 49%
    18:00 +20°C° 0 mm 4 mps 748 mmHg 53%
    19:00 +19°C° 0 mm 4 mps 748 mmHg 59%
    20:00 +18°C° 0 mm 4 mps 748 mmHg 64%
    21:00 +15°C° 0 mm 4 mps 748 mmHg 70%
    22:00 +15°C° 0 mm 4 mps 747 mmHg 74%
    23:00 +14°C° 0 mm 3 mps 747 mmHg 77%

    24 May, Friday

    Time Temperature Precipitation Wind Pressure Humidity
    00:00 +14°C° 0 mm 3 mps 747 mmHg 81%
    01:00 +14°C° 0 mm 3 mps 747 mmHg 85%
    02:00 +13°C° 0 mm 3 mps 747 mmHg 88%
    03:00 +13°C° 0 mm 3 mps 747 mmHg 91%
    04:00 +13°C° 1 mm 3 mps 747 mmHg 92%
    05:00 +13°C° 1 mm 3 mps 747 mmHg 92%
    06:00 +13°C° 1 mm 4 mps 748 mmHg 92%
    07:00 +14°C° 0.1 mm 4 mps 748 mmHg 85%
    08:00 +15°C° 0.1 mm 5 mps 749 mmHg 77%
    09:00 +15°C° 0.1 mm 5 mps 749 mmHg 69%
    10:00 +16°C° 0 mm 6 mps 750 mmHg 64%
    11:00 +16°C° 0 mm 6 mps 750 mmHg 60%
    12:00 +17°C° 0 mm 6 mps 750 mmHg 55%
    13:00 +17°C° 0 mm 6 mps 751 mmHg 52%
    14:00 +17°C° 0 mm 6 mps 751 mmHg 50%
    15:00 +16°C° 0 mm 6 mps 751 mmHg 48%
    16:00 +16°C° 0 mm 5 mps 752 mmHg 51%
    17:00 +15°C° 0 mm 5 mps 752 mmHg 53%
    18:00 +14°C° 0 mm 4 mps 753 mmHg 56%
    19:00 +12°C° 0 mm 4 mps 753 mmHg 60%
    20:00 +11°C° 0 mm 3 mps 754 mmHg 64%
    21:00 +9°C° 0 mm 3 mps 755 mmHg 69%
    22:00 +9°C° 0 mm 3 mps 755 mmHg 70%
    23:00 +8°C° 0 mm 3 mps 755 mmHg 71%

    25 May, Saturday

    Time Temperature Precipitation Wind Pressure Humidity
    00:00 +8°C° 0 mm 2 mps 756 mmHg 72%
    01:00 +7°C° 0 mm 2 mps 756 mmHg 73%
    02:00 +7°C° 0 mm 2 mps 756 mmHg 73%
    03:00 +6°C° 0 mm 2 mps 756 mmHg 74%
    04:00 +7°C° 0 mm 2 mps 757 mmHg 70%
    05:00 +8°C° 0 mm 3 mps 757 mmHg 67%
    06:00 +9°C° 0 mm 3 mps 757 mmHg 63%
    07:00 +11°C° 0 mm 3 mps 757 mmHg 57%
    08:00 +12°C° 0 mm 3 mps 757 mmHg 51%
    09:00 +14°C° 0 mm 3 mps 757 mmHg 44%
    10:00 +16°C° 0 mm 3 mps 757 mmHg 42%
    11:00 +17°C° 0 mm 3 mps 757 mmHg 40%
    12:00 +18°C° 0 mm 3 mps 757 mmHg 38%
    13:00 +19°C° 0 mm 3 mps 756 mmHg 38%
    14:00 +19°C° 0 mm 3 mps 756 mmHg 37%
    15:00 +20°C° 0 mm 4 mps 756 mmHg 37%
    16:00 +20°C° 0 mm 3 mps 755 mmHg 42%
    17:00 +19°C° 0 mm 3 mps 755 mmHg 47%
    18:00 +18°C° 0 mm 3 mps 755 mmHg 52%
    19:00 +17°C° 0 mm 3 mps 755 mmHg 54%
    20:00 +14°C° 0 mm 4 mps 754 mmHg 56%
    21:00 +13°C° 0 mm 4 mps 754 mmHg 58%
    22:00 +13°C° 0 mm 4 mps 754 mmHg 56%
    23:00 +12°C° 0 mm 5 mps 754 mmHg 55%

    26 May, Sunday

    Time Temperature Precipitation Wind Pressure Humidity
    00:00 +12°C° 0 mm 5 mps 754 mmHg 53%
    01:00 +11°C° 0 mm 6 mps 753 mmHg 52%
    02:00 +13°C° 0 mm 6 mps 753 mmHg 51%
    03:00 +13°C° 0 mm 6 mps 753 mmHg 50%
    04:00 +13°C° 0.1 mm 6 mps 752 mmHg 52%
    05:00 +13°C° 0.1 mm 6 mps 752 mmHg 54%
    06:00 +14°C° 0.1 mm 7 mps 752 mmHg 56%
    07:00 +15°C° 0 mm 7 mps 751 mmHg 54%
    08:00 +17°C° 0 mm 7 mps 751 mmHg 52%
    09:00 +20°C° 0 mm 7 mps 751 mmHg 50%
    10:00 +21°C° 0 mm 7 mps 750 mmHg 50%
    11:00 +22°C° 0 mm 7 mps 750 mmHg 50%
    12:00 +24°C° 0 mm 7 mps 750 mmHg 51%
    13:00 +23°C° 0.3 mm 6 mps 749 mmHg 56%
    14:00 +22°C° 0.3 mm 5 mps 749 mmHg 61%
    15:00 +21°C° 0.3 mm 4 mps 748 mmHg 67%
    16:00 +21°C° 0 mm 4 mps 748 mmHg 67%
    17:00 +21°C° 0 mm 5 mps 747 mmHg 66%
    18:00 +21°C° 0 mm 5 mps 746 mmHg 66%
    19:00 +21°C° 0.1 mm 6 mps 746 mmHg 63%
    20:00 +21°C° 0.1 mm 7 mps 746 mmHg 60%
    21:00 +21°C° 0.1 mm 8 mps 746 mmHg 57%
    22:00 +20°C° 0.6 mm 8 mps 746 mmHg 64%
    23:00 +18°C° 0.6 mm 7 mps 745 mmHg 72%
    Show more